Hourly Data Report for October 27, 2015

All times are specified in Local Standard Time (LST). Add 1 hour to adjust for Daylight Saving Time where and when it is observed.

ST LEONARD CS
NEW BRUNSWICK

47°09'28.050" N
67°49'55.014" W
245.00 m
810I001
71019
WIY

Download Data

Hourly Data (October 2015)
Hourly Data Report for October 27, 2015
Temp Definition
°C
Dew Point Temp Definition
°C
Rel Hum Definition
%
Wind Dir Definition
10's deg

Wind Spd Definition
km/h
Visibility Definition
km
Stn Press Definition
kPa
Hmdx Definition


Wind Chill Definition


Weather Definition


TIME
00:00 -6.3 -7.2 94 17 3   100.04   -8 LegendNANA
01:00 -6.9 -7.6 95 19 3   100.07   -8 LegendNANA
02:00 -5.5 -6.6 92 19 6   100.08   -8 LegendNANA
03:00 -6.3 -7.6 91 20 5   100.09   -9 LegendNANA
04:00 -6.6 -7.5 93 21 4   100.08   -9 LegendNANA
05:00 -6.5 -7.5 92 20 6   100.10   -9 LegendNANA
06:00 -7.2 -8.3 92 23 6   100.12   -10 LegendNANA
07:00 -6.0 -7.0 93 18 6   100.14   -9 LegendNANA
08:00 -3.9 -5.6 88 20 3   100.16   -5 LegendNANA
09:00 -2.2 -5.2 79 23 6   100.17   -5 LegendNANA
10:00 0.6 -3.6 73 24 9   100.19     LegendNANA
11:00 2.9 -3.9 61 26 12   100.15     LegendNANA
12:00 4.4 -3.8 55 28 22   100.12     LegendNANA
13:00 5.5 -4.4 49 27 19   100.02     LegendNANA
14:00 5.7 -5.2 45 25 25   99.95     LegendNANA
15:00 5.8 -4.2 49 25 20   99.92     LegendNANA
16:00 6.9 -4.5 44 24 23   99.87     LegendNANA
17:00 6.2 -4.9 45 25 21   99.87     LegendNANA
18:00 3.8 -4.3 55 24 13   99.89     LegendNANA
19:00 2.6 -3.7 63 23 11   99.92     LegendNANA
20:00 3.3 -2.3 67 28 13   100.02     LegendNANA
21:00 2.9 -2.3 69 31 17   100.10     LegendNANA
22:00 1.4 -2.9 73 24 7   100.18     LegendNANA
23:00 0.9 -3.1 75 17 3   100.21     LegendNANA

Notes on Data Quality.

Legend

  • E = Estimated
  • M = Missing
  • NA = Not Available
  • ‡ = Partner data that is not subject to review by the National Climate Archives
Date modified: